Weather in Gazimursky Zavod

Russia / Zabaykalsky Krai     51°32′52″N   118°20′26″E
temp.,
°C
wind,
m/s
gust,
m/s
humid.,
%
clouds,
%
prec.,
mm/h
press.,
hPa
HPBL,
m
17 january, mon
mon1700:00−32w1110099 0.0 10389
03:00−34w11100100 0.0 10409
06:00−35wsw1110083 0.0 10419
09:00−36ssw1110069 0.0 10429
12:00−26wnw01916 0.0 103899
15:00−22ne00825 0.0 1034189
18:00−29sse11985 0.0 10379
21:00−33ssw111005 0.0 10409
18 january, tue
tue1800:00−34ssw111005 0.0 10419
03:00−35ssw1110022 0.0 10429
06:00−36sw0010048 0.0 10449
09:00−37ssw0010033 0.0 10459
12:00−26nw11895 0.0 104295
15:00−21nnw11794 0.0 1039215
18:00−29wsw00955 0.0 10439
21:00−33wsw111005 0.0 10469
19 january, wed
wed1900:00−34sw111006 0.0 10479
03:00−35ssw111005 0.0 10479
06:00−35ssw111006 0.0 104711
09:00−35s11996 0.0 104611
12:00−24s11775 0.0 1040101
15:00−19ssw11715 0.0 1036189
18:00−26s1194100 0.0 10399
21:00−27ssw1196100 0.0 103916
20 january, thu
thu2000:00−25ssw1195100 0.0 103820
03:00−24ssw1195100 0.0 103814
06:00−27ese009710 0.0 10399
09:00−29ssw11996 0.0 10409
12:00−20s0185100 0.0 1037102
15:00−17ese0081100 0.0 1034195
18:00−19sse1196100 0.0 10369
21:00−22s009961 0.0 10379
21 january, fri
fri2100:00−26ssw1110092 0.0 10409
03:00−28ssw1110086 0.0 10419
06:00−29s0010098 0.0 10419
09:00−29se1110097 0.0 10429
12:00−21nne009477 0.0 1038103
15:00−17nne118886 0.0 1035150
18:00−22sse0010095 0.0 10379
21:00−24sw00100100 0.0 10389